Terminal Aerodrome Forecast
Issued by NWS

Home | Current Version | Previous Version | Text Only | Print | Product List | Glossary On
Versions: 1 2 3 4 5 6 7 8 9 10 11 12 13 14 15 16 17 18 19 20 21 22 23 24 25 26 27 28 29 30 31
000
FTUS44 KFWD 212300
TAFAFW
TAF
KAFW 212336Z 2200/2224 07005KT P6SM SCT060 SCT250
     FM220300 03010KT P6SM SCT060 SCT250
     FM221500 06010KT P6SM SCT250=

USA.gov is the U.S. government's official web portal to all federal, state and local government web resources and services.